Regional Weather Roundup
Issued by NWS Glasgow, MT

Home | Current Version | Previous Version | Text Only | Print | Product List | Glossary On
Versions: 1 2 3 4 5 6 7 8 9 10 11 12 13 14 15 16 17 18 19 20 21 22 23 24 25 26 27 28 29 30 31 32 33 34 35 36 37 38 39 40 41 42 43 44 45 46 47 48 49 50
000
ASUS45 KGGW 031515
RWRGGW
HOURLY REGIONAL WEATHER ROUNDUP FOR NORTHEAST MONTANA
NATIONAL WEATHER SERVICE GLASGOW MONTANA
900 AM MDT MON AUG 03 2015

NOTE: "FAIR" INDICATES FEW OR NO CLOUDS BELOW 12,000 FEET WITH NO
SIGNIFICANT WEATHER AND/OR OBSTRUCTIONS TO VISISBILITY.

NORTHEAST MONTANA


CITY           SKY/WX    TMP DP  RH WIND       PRES   REMARKS
GLASGOW        SUNNY     70  48  45 SE15      30.02S
PLENTYWOOD       N/A     65  50  58 S2          N/A
WOLF POINT     SUNNY     68  50  52 E6        30.04S
JORDAN           N/A     70  47  43 E8        30.01F
WINNETT          N/A     68  47  46 CALM        N/A
SIDNEY         SUNNY    N/A N/A N/A CALM      30.04S
GLENDIVE         N/A    N/A N/A N/A MISG        N/A
MALTA            N/A     69  51  52 E3          N/A
SCOBEY           N/A     66  49  54 CALM      30.04F

FORT PECK REPORTS


CITY           SKY/WX    TMP DP  RH WIND       PRES   REMARKS
FORT PECK        N/A     71  51  49 E8          N/A
THE PINES        N/A     72  49  44 E3          N/A

SOUTHEAST MONTANA


CITY           SKY/WX    TMP DP  RH WIND       PRES   REMARKS
BILLINGS       MOSUNNY   68  47  46 NE7       30.02S
MILES CITY     SUNNY     73  49  42 E6        30.01S
BAKER          SUNNY     70  48  45 SE13      30.06F
LIVINGSTON     MOSUNNY   64  43  46 CALM      30.05F

CENTRAL MONTANA


CITY           SKY/WX    TMP DP  RH WIND       PRES   REMARKS
HAVRE          SUNNY     69  53  56 E14       29.93S
LEWISTOWN      MOSUNNY   71  50  47 E10       30.02S
GREAT FALLS    MOSUNNY   70  48  45 CALM      29.95S
CUT BANK       SUNNY     63  49  60 CALM      29.97S
HELENA         MOSUNNY   67  45  45 CALM      29.98F
BUTTE          MOSUNNY   65  40  39 CALM      30.06F
BOZEMAN        SUNNY     66  49  54 N3        30.01F

WESTERN MONTANA


CITY           SKY/WX    TMP DP  RH WIND       PRES   REMARKS
MISSOULA       PTSUNNY   65  34  31 CALM      29.93S
KALISPELL      NOT AVBL

NORTH DAKOTA


CITY           SKY/WX    TMP DP  RH WIND       PRES   REMARKS
WILLISTON      SUNNY     67  50  54 CALM      30.05F
DICKINSON      SUNNY     67  52  58 E5        30.05S
MINOT          SUNNY     67  51  56 VRB3      30.02S
BISMARCK       SUNNY     67  53  61 CALM      30.04S

SOUTHERN SASKATCHEWAN


CITY           SKY/WX    TMP DP  RH WIND       PRES   REMARKS
REGINA         PTSUNNY   73  55  53 SW3       30.03S
ESTEVAN        MOSUNNY   68  54  60 CALM      30.03F
SWIFT CURRENT  SUNNY     70  55  60 S9        30.01F



USA.gov is the U.S. government's official web portal to all federal, state and local government web resources and services.